Flag for Russia Weather past 2 weeks in Kazan, Russia

Now
70 °F

Scattered clouds.


Feels Like: 70 °F
Forecast: 52 / 75 °F
Wind: 8 mph from Northwest

Location: Kazan'

Current Time: May 25, 2015 at 5:09:19 PM

Latest Report: May 25, 2015 at 4:30 PM


Visibility: N/A

Pressure: 30.07 "Hg

Humidity: 46%

Dew point: 48 °F

Location of KazanLocation

Historic Weather in Kazan — Graph

°F

Kazan temperature yesterday

Maximum temperature yesterday: 70 °F (at 2:00 PM)
Minimum temperature yesterday: 57 °F (at 11:00 PM)
Average temperature yesterday: 64 °F

Past Weeks' High & Low Weather Summary

 TemperatureHumidityPressure
High81 °F (May 23, 1:30 PM)100% (May 18, 4:00 PM)30.18 "Hg (May 18, 4:00 PM)
Low41 °F (May 11, 3:00 AM)24% (May 10, 3:00 PM)29.33 "Hg (May 18, 1:30 AM)
Average59 °F65%29.83 "Hg
* Reported May 10 3:00 PM — May 25 3:30 PM, Kazan, Weather by CustomWeather, © 2015

Note: Actual official high and low records may vary slightly from our data, if they occured in-between our weather recording intervals... More about our weather records

Advertising

Kazan weather history for previous 24 hours

 ConditionsComfort  
Time TempWeatherWind HumidityBarometerVisibility
3:30 PM
Mon, May 25
70 °FScattered clouds.8 mph46%30.07 "HgN/A
3:00 PM68 °FScattered clouds.6 mph53%30.07 "HgN/A
2:30 PM68 °FBroken clouds.8 mph53%30.07 "HgN/A
2:00 PM68 °FBroken clouds.8 mph56%30.07 "HgN/A
1:30 PM66 °FPartly sunny.8 mph60%30.07 "HgN/A
1:00 PM68 °FPartly sunny.8 mph64%30.04 "HgN/A
12:30 PM64 °FBroken clouds.8 mph68%30.04 "HgN/A
12:00 PM66 °FPartly sunny.8 mph73%30.04 "HgN/A
11:30 AM64 °FPartly sunny.10 mph78%30.04 "HgN/A
11:00 AM66 °FPassing clouds.10 mph73%30.04 "HgN/A
10:30 AM64 °FPassing clouds.10 mph73%30.01 "HgN/A
10:00 AM68 °FSunny.10 mph64%30.01 "Hg10 mi
9:30 AM68 °FSunny.15 mph64%29.98 "Hg10 mi
9:00 AM68 °FSunny.10 mph64%29.98 "Hg10 mi
8:30 AM68 °FPassing clouds.6 mph64%29.98 "HgN/A
8:00 AM66 °FPassing clouds.3 mph68%29.98 "HgN/A
7:30 AM66 °FPassing clouds.6 mph68%29.95 "HgN/A
7:00 AM64 °FPassing clouds.6 mph68%29.95 "HgN/A
6:30 AM63 °FSunny.6 mph68%29.95 "Hg10 mi
6:00 AM61 °FPassing clouds.6 mph72%29.95 "HgN/A
5:30 AM59 °FSunny.6 mph77%29.95 "Hg10 mi
5:00 AM59 °FPassing clouds.3 mph77%29.95 "HgN/A
4:30 AM57 °FSunny.3 mph82%29.92 "Hg10 mi
4:00 AM57 °FPassing clouds.6 mph77%29.92 "HgN/A
3:30 AM57 °FPassing clouds.8 mph77%29.92 "HgN/A
3:00 AM59 °FPassing clouds.10 mph72%29.92 "HgN/A
2:30 AM59 °FPassing clouds.8 mph77%29.95 "HgN/A
2:00 AM59 °FPassing clouds.8 mph77%29.95 "HgN/A
1:30 AM59 °FPassing clouds.6 mph77%29.98 "HgN/A
1:00 AM59 °FPassing clouds.13 mph72%29.98 "HgN/A
12:30 AM57 °FSprinkles. Passing clouds.13 mph82%29.92 "HgN/A
12:00 AM59 °FPassing clouds.10 mph72%29.95 "HgN/A
11:30 PM
Sun, May 24
57 °FClear.6 mph77%29.95 "Hg10 mi
11:00 PM57 °FClear.8 mph77%29.95 "Hg10 mi
10:30 PM59 °FClear.8 mph72%29.95 "Hg10 mi
10:00 PM61 °FClear.10 mph68%29.95 "Hg10 mi
9:30 PM63 °FClear.10 mph64%29.95 "Hg10 mi
9:00 PM63 °FSunny.8 mph68%29.95 "Hg10 mi
8:30 PM64 °FSunny.10 mph64%29.95 "Hg10 mi
8:00 PM64 °FSunny.6 mph64%29.98 "Hg10 mi
7:30 PM68 °FPassing clouds.3 mph49%29.98 "HgN/A
7:00 PM68 °FSunny.No wind49%29.98 "Hg10 mi
6:30 PM70 °FSunny.1 mph43%29.98 "Hg10 mi
6:00 PM70 °FPassing clouds.3 mph46%29.98 "HgN/A
5:30 PM70 °FPassing clouds.3 mph46%29.98 "HgN/A
5:00 PM70 °FPassing clouds.6 mph43%29.98 "HgN/A
Weather by CustomWeather, © 2015

See weather overviewHow to use our weather pages